Time,TemperatureF,DewpointF,PressureIn,WindDirection,WindDirectionDegrees,WindSpeedMPH,WindSpeedGustMPH,Humidity,HourlyPrecipIn,Conditions,Clouds,dailyrainin,SolarRadiationWatts/m^2,SoftwareType,DateUTC
2013-05-09 00:03:00,58.0,58.0,-100.00,WSW,252,1.0,3.0,100,0.00,,,0.05,0.000000,,2013-05-09 04:03:00,
2013-05-09 00:33:00,58.0,58.0,-100.00,SW,231,0.0,2.0,100,0.00,,,0.04,0.000000,,2013-05-09 04:33:00,
2013-05-09 00:43:00,58.0,58.0,-100.00,SW,231,0.0,2.0,100,0.00,,,0.04,0.000000,,2013-05-09 04:43:00,
2013-05-09 00:53:00,58.0,58.0,-100.00,SW,231,0.0,2.0,100,0.00,,,0.04,0.000000,,2013-05-09 04:53:00,
2013-05-09 01:02:00,58.0,58.0,-100.00,SW,231,0.0,2.0,100,0.00,,,0.04,0.000000,,2013-05-09 05:02:00,
2013-05-09 01:32:00,57.0,57.0,-100.00,WSW,248,1.0,3.0,100,0.00,,,0.04,0.000000,,2013-05-09 05:32:00,
2013-05-09 01:43:00,57.0,57.0,-100.00,WSW,248,1.0,3.0,100,0.00,,,0.04,0.000000,,2013-05-09 05:43:00,
2013-05-09 01:52:00,57.0,57.0,-100.00,WSW,248,1.0,3.0,100,0.00,,,0.04,0.000000,,2013-05-09 05:52:00,
2013-05-09 02:02:00,57.0,57.0,-100.00,WSW,248,1.0,3.0,100,0.00,,,0.04,0.000000,,2013-05-09 06:02:00,
2013-05-09 02:32:00,55.0,55.0,-100.00,SW,217,0.0,2.0,100,0.00,,,0.04,0.000000,,2013-05-09 06:32:00,
2013-05-09 02:42:00,55.0,55.0,-100.00,SW,217,0.0,2.0,100,0.00,,,0.04,0.000000,,2013-05-09 06:42:00,
2013-05-09 02:52:00,55.0,55.0,-100.00,SW,217,0.0,2.0,100,0.00,,,0.04,0.000000,,2013-05-09 06:52:00,
2013-05-09 03:01:00,55.0,55.0,-100.00,SW,217,0.0,2.0,100,0.00,,,0.04,0.000000,,2013-05-09 07:01:00,
2013-05-09 03:32:00,54.0,54.0,-100.00,West,265,0.0,2.0,100,0.00,,,0.04,0.000000,,2013-05-09 07:32:00,
2013-05-09 03:43:00,54.0,54.0,-100.00,West,265,0.0,2.0,100,0.00,,,0.04,0.000000,,2013-05-09 07:43:00,
2013-05-09 03:52:00,54.0,54.0,-100.00,West,265,0.0,2.0,100,0.00,,,0.04,0.000000,,2013-05-09 07:52:00,
2013-05-09 04:02:00,54.0,54.0,-100.00,West,265,0.0,2.0,100,0.00,,,0.04,0.000000,,2013-05-09 08:02:00,
2013-05-09 04:32:00,54.0,54.0,-100.00,NW,317,0.0,2.0,100,0.00,,,0.04,0.000000,,2013-05-09 08:32:00,
2013-05-09 04:42:00,54.0,54.0,-100.00,NW,317,0.0,2.0,100,0.00,,,0.04,0.000000,,2013-05-09 08:42:00,
2013-05-09 04:52:00,54.0,54.0,-100.00,NW,317,0.0,2.0,100,0.00,,,0.04,0.000000,,2013-05-09 08:52:00,
2013-05-09 05:02:00,54.0,54.0,-100.00,NW,317,0.0,2.0,100,0.00,,,0.04,0.000000,,2013-05-09 09:02:00,
2013-05-09 05:32:00,54.0,54.0,-100.00,South,187,1.0,2.0,100,0.00,,,0.04,0.000000,,2013-05-09 09:32:00,
2013-05-09 05:43:00,54.0,54.0,-100.00,South,187,1.0,2.0,100,0.00,,,0.04,0.000000,,2013-05-09 09:43:00,
2013-05-09 05:53:00,54.0,54.0,-100.00,South,187,1.0,2.0,100,0.00,,,0.04,0.000000,,2013-05-09 09:53:00,
2013-05-09 06:02:00,54.0,54.0,-100.00,South,187,1.0,2.0,100,0.00,,,0.04,0.000000,,2013-05-09 10:02:00,
2013-05-09 06:33:00,54.0,54.0,-100.00,SE,146,1.0,2.0,100,0.00,,,0.04,0.000000,,2013-05-09 10:33:00,
2013-05-09 06:42:00,54.0,54.0,-100.00,SE,146,1.0,2.0,100,0.00,,,0.04,0.000000,,2013-05-09 10:42:00,
2013-05-09 06:53:00,54.0,54.0,-100.00,SE,146,1.0,2.0,100,0.00,,,0.04,0.000000,,2013-05-09 10:53:00,
2013-05-09 07:02:00,54.0,54.0,-100.00,SE,146,1.0,2.0,100,0.00,,,0.04,0.000000,,2013-05-09 11:02:00,
2013-05-09 07:32:00,54.0,54.0,-100.00,SSE,149,1.0,3.0,100,0.00,,,0.04,6.000000,,2013-05-09 11:32:00,
2013-05-09 07:42:00,54.0,54.0,-100.00,SSE,149,1.0,3.0,100,0.00,,,0.04,6.000000,,2013-05-09 11:42:00,
2013-05-09 07:52:00,54.0,54.0,-100.00,SSE,149,1.0,3.0,100,0.00,,,0.04,6.000000,,2013-05-09 11:52:00,
2013-05-09 08:01:00,54.0,54.0,-100.00,SSE,149,1.0,3.0,100,0.00,,,0.04,6.000000,,2013-05-09 12:01:00,
2013-05-09 08:32:00,55.0,55.0,-100.00,ENE,61,0.0,3.0,100,0.00,,,-99.99,55.000000,,2013-05-09 12:32:00,
2013-05-09 08:43:00,55.0,55.0,-100.00,ENE,61,0.0,3.0,100,0.00,,,-99.99,55.000000,,2013-05-09 12:43:00,
2013-05-09 08:52:00,55.0,55.0,-100.00,ENE,61,0.0,3.0,100,0.00,,,-99.99,55.000000,,2013-05-09 12:52:00,
2013-05-09 09:01:00,55.0,55.0,-100.00,ENE,61,0.0,3.0,100,0.00,,,-99.99,55.000000,,2013-05-09 13:01:00,
2013-05-09 09:32:00,57.0,57.0,-100.00,ENE,69,2.0,3.0,100,0.00,,,0.04,135.000000,,2013-05-09 13:32:00,
2013-05-09 09:42:00,57.0,57.0,-100.00,ENE,69,2.0,3.0,100,0.00,,,0.04,135.000000,,2013-05-09 13:42:00,
2013-05-09 09:52:00,57.0,57.0,-100.00,ENE,69,2.0,3.0,100,0.00,,,0.04,135.000000,,2013-05-09 13:52:00,
2013-05-09 10:02:00,57.0,57.0,-100.00,ENE,69,2.0,3.0,100,0.00,,,0.04,135.000000,,2013-05-09 14:02:00,
2013-05-09 10:32:00,61.0,61.0,-100.00,North,350,2.0,4.0,100,0.00,,,0.04,266.000000,,2013-05-09 14:32:00,
2013-05-09 10:42:00,61.0,61.0,-100.00,North,350,2.0,4.0,100,0.00,,,0.04,266.000000,,2013-05-09 14:42:00,
2013-05-09 10:52:00,61.0,61.0,-100.00,North,350,2.0,4.0,100,0.00,,,0.04,266.000000,,2013-05-09 14:52:00,
2013-05-09 11:02:00,61.0,61.0,-100.00,North,350,2.0,4.0,100,0.00,,,0.04,266.000000,,2013-05-09 15:02:00,
2013-05-09 11:33:00,64.0,62.0,-100.00,ENE,61,4.0,8.0,92,0.00,,,0.04,593.000000,,2013-05-09 15:33:00,
2013-05-09 11:43:00,64.0,62.0,-100.00,ENE,61,4.0,8.0,92,0.00,,,0.04,593.000000,,2013-05-09 15:43:00,
2013-05-09 11:53:00,64.0,62.0,-100.00,ENE,61,4.0,8.0,92,0.00,,,0.04,593.000000,,2013-05-09 15:53:00,
2013-05-09 12:03:00,64.0,62.0,-100.00,ENE,61,4.0,8.0,92,0.00,,,0.04,593.000000,,2013-05-09 16:03:00,
2013-05-09 12:33:00,70.0,63.0,-100.00,ENE,67,3.0,7.0,78,0.00,,,0.04,781.000000,,2013-05-09 16:33:00,
2013-05-09 12:42:00,70.0,63.0,-100.00,ENE,67,3.0,7.0,78,0.00,,,0.04,781.000000,,2013-05-09 16:42:00,
2013-05-09 12:53:00,70.0,63.0,-100.00,ENE,67,3.0,7.0,78,0.00,,,0.04,781.000000,,2013-05-09 16:53:00,
2013-05-09 13:02:00,70.0,63.0,-100.00,ENE,67,3.0,7.0,78,0.00,,,0.04,781.000000,,2013-05-09 17:02:00,
2013-05-09 13:32:00,75.0,63.0,-100.00,NE,40,4.0,8.0,66,0.00,,,0.04,860.000000,,2013-05-09 17:32:00,
2013-05-09 13:42:00,75.0,63.0,-100.00,NE,40,4.0,8.0,66,0.00,,,0.04,860.000000,,2013-05-09 17:42:00,
2013-05-09 13:55:00,75.0,63.0,-100.00,NE,40,4.0,8.0,66,0.00,,,0.04,860.000000,,2013-05-09 17:55:00,
2013-05-09 14:02:00,75.0,63.0,-100.00,NE,40,4.0,8.0,66,0.00,,,0.04,860.000000,,2013-05-09 18:02:00,
2013-05-09 14:32:00,76.0,59.0,-100.00,ENE,57,5.0,8.0,56,0.00,,,0.04,821.000000,,2013-05-09 18:32:00,
2013-05-09 14:42:00,76.0,59.0,-100.00,ENE,57,5.0,8.0,56,0.00,,,0.04,821.000000,,2013-05-09 18:42:00,
2013-05-09 14:52:00,76.0,59.0,-100.00,ENE,57,5.0,8.0,56,0.00,,,0.04,821.000000,,2013-05-09 18:52:00,
2013-05-09 15:01:00,76.0,59.0,-100.00,ENE,57,5.0,8.0,56,0.00,,,0.04,821.000000,,2013-05-09 19:01:00,
2013-05-09 16:32:00,78.0,56.0,-100.00,West,260,3.0,9.0,46,-99.99,,,0.04,595.000000,,2013-05-09 20:32:00,
2013-05-09 16:42:00,78.0,56.0,-100.00,West,260,3.0,9.0,46,-99.99,,,0.04,595.000000,,2013-05-09 20:42:00,
2013-05-09 16:52:00,78.0,56.0,-100.00,West,260,3.0,9.0,46,-99.99,,,0.04,595.000000,,2013-05-09 20:52:00,
2013-05-09 17:02:00,78.0,56.0,-100.00,West,260,3.0,9.0,46,-99.99,,,0.04,595.000000,,2013-05-09 21:02:00,
2013-05-09 18:33:00,79.0,55.0,-100.00,WSW,250,4.0,11.0,43,-99.99,,,0.04,453.000000,,2013-05-09 22:33:00,
2013-05-09 18:42:00,79.0,55.0,-100.00,WSW,250,4.0,11.0,43,-99.99,,,0.04,453.000000,,2013-05-09 22:42:00,
2013-05-09 18:52:00,79.0,55.0,-100.00,WSW,250,4.0,11.0,43,-99.99,,,0.04,453.000000,,2013-05-09 22:52:00,
2013-05-09 19:02:00,79.0,55.0,-100.00,WSW,250,4.0,11.0,43,-99.99,,,0.04,453.000000,,2013-05-09 23:02:00,
2013-05-09 19:32:00,75.0,57.0,-100.00,NNW,333,2.0,7.0,53,0.00,,,0.04,199.000000,,2013-05-09 23:32:00,
2013-05-09 19:42:00,75.0,57.0,-100.00,NNW,333,2.0,7.0,53,0.00,,,0.04,199.000000,,2013-05-09 23:42:00,
2013-05-09 19:52:00,75.0,57.0,-100.00,NNW,333,2.0,7.0,53,0.00,,,0.04,199.000000,,2013-05-09 23:52:00,
2013-05-09 20:01:00,75.0,57.0,-100.00,NNW,333,2.0,7.0,53,0.00,,,0.04,199.000000,,2013-05-10 00:01:00,
2013-05-09 21:32:00,67.0,60.0,-100.00,SSW,211,1.0,3.0,77,-99.99,,,0.00,3.000000,,2013-05-10 01:32:00,
2013-05-09 21:42:00,67.0,60.0,-100.00,SSW,211,1.0,3.0,77,-99.99,,,0.00,3.000000,,2013-05-10 01:42:00,
2013-05-09 21:52:00,67.0,60.0,-100.00,SSW,211,1.0,3.0,77,-99.99,,,0.00,3.000000,,2013-05-10 01:52:00,
2013-05-09 22:02:00,67.0,60.0,-100.00,SSW,211,1.0,3.0,77,-99.99,,,0.00,3.000000,,2013-05-10 02:02:00,
2013-05-09 22:32:00,64.0,59.0,-100.00,South,170,0.0,2.0,83,0.00,,,0.00,0.000000,,2013-05-10 02:32:00,
2013-05-09 22:42:00,64.0,59.0,-100.00,South,170,0.0,2.0,83,0.00,,,0.00,0.000000,,2013-05-10 02:42:00,
2013-05-09 22:53:00,64.0,59.0,-100.00,South,170,0.0,2.0,83,0.00,,,0.00,0.000000,,2013-05-10 02:53:00,
2013-05-09 23:01:00,64.0,59.0,-100.00,South,170,0.0,2.0,83,0.00,,,0.00,0.000000,,2013-05-10 03:01:00,
2013-05-09 23:33:00,62.0,60.0,-100.00,WSW,244,1.0,4.0,92,0.00,,,0.00,0.000000,,2013-05-10 03:33:00,
2013-05-09 23:43:00,62.0,60.0,-100.00,WSW,244,1.0,4.0,92,0.00,,,0.00,0.000000,,2013-05-10 03:43:00,
2013-05-09 23:53:00,62.0,60.0,-100.00,WSW,244,1.0,4.0,92,0.00,,,0.00,0.000000,,2013-05-10 03:53:00,